FENGYUN 1C DEB

Satellite information

Favourite Embed

Satellite Type and Status

DEBRISIN ORBIT

Key statistics

Satellite FENGYUN 1C DEB at a glance.

Uptime

9715

Days in orbit

Revolutions

≈ 14.1

Per day

Orbit

SSO

Sun Synchronous Orbit

Inclination

99.1

Latest

Satellite identification and parameters

Extended collection of information and parameters for FENGYUN 1C DEB.

Object identification

Identified? True

Debris? True

Object name: FENGYUN 1C DEB

International designator: 1999-025VW

Object number (NORAD): 30213

Object ID (CCSDS): 30213

Country: PEOPLES REPUBLIC OF CHINA (PRC)

Current information (Y/N): Y

RCS size: SMALL

Orbital parameters

Period: 102.014 minutes

Inclination: 99.1219 deg

SMA: 7232.139 km

Apoapsis: 905.833 km

Periapsis: 802.174 km

RAAN: 62.5869 deg

Eccentricy: 0.00716657

Argument of periapsis: 245.3487 deg

Mean anomaly: 144.0393 deg

Mean motion: 14.11570756 rev/day

Mean motion (dot): 0.00004738 rev/day2

B* drag term: 0.0025707869 1/REarth

Two-line elements (TLE)

Creation date: Dec. 12, 2025, 10:14 a.m.

Reference frame: TEME

Reference center: EARTH

Epoch: Dec. 12, 2025, 3:45 a.m. UTC

TLE line 0: 0 FENGYUN 1C DEB

TLE line 1: 1 30213U 99025VW 25346.15641459 .00004738 00000-0 25708-2 0 9995

TLE line 2: 2 30213 99.1219 62.5869 0071666 245.3487 144.0393 14.11570756965075

Live tracking on map

Real-time ground track for satellite FENGYUN 1C DEB.

In-orbit conjunctions

A list of the most updated potential collisions computed for object FENGYUN 1C DEB.

Target Orbit TCA Probability of collision Miss distance Type
COSMOS 1275 DEB LEO 2025-08-18 03:31:50 0.0009590564 38.0 (m) DEBRIS
THOR BURNER 2A R/B SSO 2025-01-19 03:38:37 0.0001708571 263.0 (m) ROCKET BODY
CZ-6A DEB LEO 2024-12-11 03:16:20 0.001001453 66.0 (m) DEBRIS

Associated space launch

Chinese polar orbiting meteorological satellite

FENGYUN 1C DEB was lifted into orbit during the mission ‘Long March 4B | Feng Yun 1C’, on board a Long March 4B space rocket.

The launch took place on May 10, 1999, 1:33 a.m. from Launch Complex 7.

For more information about the launch, click the button.

Launch to space Long March 4B | Feng Yun 1C
Long March 4B | Feng Yun 1C

Agency: N/A

Status: Launch Successful

Launch date: May 10, 1999, 1:33 a.m. UTC

Rocket: Long March 4B

Launch pad: Launch Complex 7

Location: Taiyuan Satellite Launch Center, People's Republic of China

...

Latest news about this satellite

There are no fresh news available about this satellite. Check back as we update our databases every day.


Newsletter sign-up

Weekly statistics, charts and insights to help you stay on top of the space industry.